Regional Weather Roundup
Issued by NWS

Home | Current Version | Previous Version | Graphics & Text | Print | Product List | Glossary On
Versions: 1 2 3 4 5 6 7 8 9 10 11 12 13 14 15 16 17 18 19 20 21 22 23 24 25 26 27 28 29 30 31 32 33 34 35 36 37 38 39 40 41 42 43 44 45 46 47 48 49 50
000
ASUS45 KSLC 010510
RWRUT

UTAH REGIONAL WEATHER ROUNDUP
NATIONAL WEATHER SERVICE SALT LAKE CITY UT
1000 PM MST SAT JAN 31 2015

UTZ001>011-023>025-010600-

NORTHERN UTAH

CITY           SKY/WX    TMP DP  RH WIND       PRES   REMARKS
BRIGHAM CITY   CLEAR     32  27  83 CALM      30.16R
HILL AFB       CLEAR     35  24  64 CALM      30.14R
LOGAN          CLEAR     30  26  85 SE6       30.16R WCI  24
OGDEN          CLEAR     32  28  85 W3        30.14R
PROVO AIRPORT  PTCLDY    30  23  74 SW5       30.14R WCI  25
SALT LAKE CITY CLEAR     35  30  82 N5        30.14R WCI  31
VERNAL         CLEAR     35  32  88 SE5       30.02R WCI  31
WENDOVER       CLEAR     39  21  48 NE6       30.17R WCI  35
HEBER CITY     PTCLDY    28  21  74 CALM      30.11R
WEST JORDAN    CLEAR     34  25  69 CALM      30.15R

$$

UTZ012>022-026-027-010600-

SOUTHERN/CENTRAL UTAH

CITY           SKY/WX    TMP DP  RH WIND       PRES   REMARKS
BLANDING       CLOUDY    32  32 100 N3        30.09R VSB 1/2
BRYCE CANYON   PTCLDY    26  24  92 N6        30.10R WCI  19
CEDAR CITY     CLEAR     31  28  89 N6        30.11R WCI  25
DELTA          CLEAR     32  32  99 S8        30.14R WCI  25
HANKSVILLE     CLEAR     36  36 100 CALM      30.05R
MILFORD        CLEAR     32  29  88 NE3       30.13R
MOAB/CYNLANDS  CLOUDY    39  37  92 CALM      30.02R
PRICE          CLEAR     38  21  50 NW12G20   30.03R WCI  30
ST GEORGE      PTCLDY    48  34  57 SW8       30.06R
KANAB          CLEAR     39  30  70 N9        30.09R WCI  33

$$

REGIONAL REPORTS     COLORADO/ARIZONA

CITY           SKY/WX    TMP DP  RH WIND       PRES   REMARKS
CRAIG, CO      CLEAR     29  17  61 W12       29.98R WCI  19
GRAND JUNCTION CLEAR     32  31  96 CALM      30.01S
RIFLE          CLEAR     34  27  75 CALM      30.01R
MONTROSE       MOCLDY    37  34  89 W5        30.04R WCI  33
CORTEZ         CLEAR     33  30  88 CALM      29.99R
PAGE, AZ       NOT AVBL
GRAND CANYON   CLEAR     28  26  92 CALM      30.06R
KINGMAN        CLEAR     47  39  74 E7        30.02R
FLAGSTAFF      CLEAR     30  28  92 CALM      30.03R

$$

REGIONAL REPORTS    NEVADA/IDAHO/WYOMING

CITY           SKY/WX    TMP DP  RH WIND       PRES   REMARKS
LAS VEGAS, NV  PTCLDY    56  39  53 CALM      29.99R
ELY            CLEAR     31  19  61 NW9       30.15R WCI  23
ELKO           CLEAR     31  24  75 NW3       30.20R
POCATELLO, ID  CLOUDY    32  30  92 SW10      30.17S WCI  24
BURLEY         CLEAR     26  23  88 S3        30.14F
EVANSTON, WY   CLEAR     26  18  71 SW8       30.09R WCI  18
ROCK SPRINGS   CLEAR     25  10  53 VRB3      30.04R

$$



USA.gov is the U.S. government's official web portal to all federal, state and local government web resources and services.